Location: Passau
(48.5721°N, 13.4363°E)
Time: 14:36:31
(UTC+02:00)

ISS - Visible Passes

Search period start: 24 July 2017 00:00
Search period end: 03 August 2017 00:00
Orbit: 400 x 408 km, 51.6° (Epoch: 24 July)

Date Brightness Start Highest point End Pass type
(mag) Time Alt. Az. Time Alt. Az. Time Alt. Az.
24 Jul -2.8 01:00:31 10° W 01:03:41 47° N 01:06:53 10° ENE visible
24 Jul -3.6 02:37:11 10° WNW 02:40:26 70° NNE 02:43:41 10° ESE visible
24 Jul -3.0 04:13:51 10° W 04:16:45 29° SW 04:19:38 10° SSE visible
24 Jul -3.8 22:31:35 10° SW 22:34:46 55° SSE 22:37:58 10° ENE visible
25 Jul -3.0 00:08:06 10° W 00:11:18 52° N 00:14:30 10° ENE visible
25 Jul -3.2 01:44:51 10° WNW 01:48:04 55° N 01:51:18 10° E visible
25 Jul -3.7 03:21:24 10° WNW 03:24:33 47° SSW 03:27:42 10° SE visible
25 Jul -3.2 21:39:34 10° SSW 21:42:33 34° SE 21:45:33 10° E visible
25 Jul -3.4 23:15:41 10° W 23:18:55 64° NNW 23:22:10 10° ENE visible
26 Jul -2.9 00:52:30 10° WNW 00:55:40 48° N 00:56:44 33° ENE visible
26 Jul -1.2 02:29:02 10° WNW 02:29:16 12° WNW 02:29:16 12° WNW visible
26 Jul -3.9 22:23:18 10° WSW 22:26:33 86° NNW 22:29:50 10° ENE visible
27 Jul -2.8 00:00:05 10° WNW 00:03:14 46° N 00:05:20 19° ENE visible
27 Jul -1.8 01:36:42 10° WNW 01:37:56 21° WNW 01:37:56 21° WNW visible
27 Jul -3.9 21:31:01 10° SW 21:34:15 64° SSE 21:37:29 10° ENE visible
27 Jul -2.9 23:07:38 10° W 23:10:49 49° N 23:14:00 10° ENE visible
28 Jul -2.9 00:44:21 10° WNW 00:46:57 47° NW 00:46:57 47° NW visible
28 Jul -3.2 22:15:09 10° W 22:18:23 59° NNW 22:21:37 10° ENE visible
28 Jul -3.0 23:51:58 10° WNW 23:55:09 49° N 23:56:05 36° ENE visible
29 Jul -1.0 01:28:29 10° WNW 01:28:42 12° WNW 01:28:42 12° WNW visible
29 Jul -3.6 21:22:43 10° WSW 21:25:58 77° NNW 21:29:14 10° ENE visible
29 Jul -2.8 22:59:31 10° WNW 23:02:41 46° N 23:05:16 14° ENE visible
30 Jul -2.2 00:36:06 10° WNW 00:37:54 30° WNW 00:37:54 30° WNW visible
30 Jul -2.9 22:07:02 10° W 22:10:12 48° N 22:13:23 10° ENE visible
30 Jul -3.6 23:43:43 10° WNW 23:46:58 64° NNE 23:47:07 63° NE visible
31 Jul -3.1 22:51:18 10° WNW 22:54:30 52° N 22:56:21 22° ENE visible
01 Aug -1.6 00:27:50 10° WNW 00:28:58 20° W 00:28:58 20° W visible
01 Aug -2.9 21:58:50 10° WNW 22:02:00 47° N 22:05:10 10° E visible
01 Aug -3.6 23:35:23 10° WNW 23:38:14 64° W 23:38:14 64° W visible
02 Aug -3.7 22:42:58 10° WNW 22:46:13 70° NNE 22:47:30 33° E visible
